Terug naar catalogus

STARLINK-36655

ActiefCommunicatieVLEO
NORAD 67834·PAYLOAD·🇺🇸 United States

Gelanceerd Feb 16, 2026 vanaf Vandenberg Space Force Base

Loading…

Volgende Passages (komende 24 uur)

TLE

VersSource: CelesTrak SupGP

Epoch: Sep 15, 2026, 03:42 UTC

1 67834C 26033P   26258.15465278 -.00017683  00000+0 -64054-3 0  2589
2 67834  42.9995 276.7058 0001433 265.6910 115.7913 15.27584759    14

Volg STARLINK-36655 in realtime met AllMySat

Download on the App Store